[[{"header":{"parameterUnit":"m.s-1","parameterCategory":1,"la1":30.2991,"la2":30.254,"lo1":-89.0895,"lo2":-89.0444,"dy":0.0017,"dx":0.0017,"nx":28,"ny":28,"refTime":"2024-03-24T03:00:00:Z","depth":0,"parameterNumber":2,"parameterNumberName":"U-component_of_WINDS"},"data":[0,0,0,0,0,0,0,0,0,0,0,0,0,0,0,0,0,0,0,0,0,0,0,0,0,0,0,0,0,0,0,0,0,0,0,0,0,0,0,0,0,0,0,0,0,0,0,0,0,0,0,0,0,0,0,0,0,0,-0.7007,-0.7008,0,-0.7065,-0.7066,-0.7066,-0.7061,-0.706,-0.7059,-0.7058,-0.7121,-0.7123,-0.7125,0,0,0,0,0,0,0,0,0,0,0,0,0,-0.6893,-0.6895,-0.7007,-0.7008,-0.7008,-0.7065,-0.7066,-0.7067,-0.7061,-0.706,-0.7059,-0.7058,-0.712,-0.7123,-0.7126,0,0,0,0,0,0,0,0,0,0,0,0,0,-0.6946,-0.6896,-0.7007,-0.7012,-0.7013,-0.7065,-0.7066,-0.7067,-0.7062,-0.706,-0.7059,-0.7058,-0.7119,-0.7122,-0.7126,-0.7176,0,0,-0.7137,-0.7139,0,0,0,0,0,0,0,0,-0.6943,-0.695,-0.7011,-0.7012,-0.7013,-0.7054,-0.7048,-0.7104,-0.7062,-0.7043,-0.7058,-0.7057,-0.71,-0.7105,-0.7119,-0.7179,-0.7182,-0.7138,-0.714,-0.7142,-0.7143,0,0,0,0,0,0,0,-0.6939,-0.6948,-0.703,-0.7012,-0.7013,-0.7013,-0.7019,-0.7059,-0.7079,-0.7045,-0.7045,-0.7051,-0.71,-0.7115,-0.712,-0.7183,-0.7138,-0.7141,-0.7143,-0.7145,-0.7287,-0.7289,0,0,0,0,0,0,-0.6934,-0.6945,-0.7028,-0.7032,-0.6974,-0.7016,-0.7023,-0.7043,-0.7078,-0.7082,-0.7053,-0.7051,-0.711,-0.7116,-0.7123,-0.7184,-0.7142,-0.7145,-0.7147,-0.7286,-0.7288,-0.7289,0,0,0,0,0,0,-0.6932,-0.6942,-0.7026,-0.6988,-0.6999,-0.7019,-0.7042,-0.7045,-0.706,-0.7084,-0.7088,-0.7064,-0.7109,-0.7117,-0.7163,-0.7186,-0.7147,-0.715,-0.7284,-0.7286,-0.7288,-0.7308,0,0,0,0,0,0,-0.6928,-0.6941,-0.696,-0.6989,-0.7001,-0.7065,-0.7043,-0.7047,-0.7066,-0.7064,-0.7096,-0.71,-0.7108,-0.7157,-0.7167,-0.7191,-0.7153,-0.7282,-0.7285,-0.7288,-0.7305,-0.731,-0.7315,0,0,0,0,0,-0.6924,-0.6963,-0.6961,-0.6971,-0.7025,-0.7066,-0.7073,-0.7082,-0.7068,-0.7087,-0.7103,-0.7099,-0.7182,-0.7162,-0.7172,-0.7198,-0.7281,-0.7284,-0.7288,-0.7303,-0.7309,-0.7315,0,0,0,0,0,0,-0.6938,-0.6967,-0.6965,-0.7014,-0.7037,-0.7065,-0.709,-0.7088,-0.7117,-0.7114,-0.7124,-0.7131,-0.7177,-0.7192,-0.7169,-0.7249,-0.7229,-0.7235,-0.7238,-0.7244,-0.7249,-0.7245,-0.7156,0,0,0,0,0,-0.6946,-0.6976,-0.7001,-0.7042,-0.7053,-0.707,-0.7088,-0.7092,-0.7117,-0.7128,-0.7146,-0.7172,-0.7203,-0.7224,-0.7255,-0.7307,-0.7314,-0.7329,-0.7334,-0.7338,-0.7344,-0.7373,-0.738,-0.7301,-0.7301,-0.7301,0,0,-0.6964,-0.6984,-0.7003,-0.7045,-0.7064,-0.7096,-0.7078,-0.7113,-0.7137,-0.7133,-0.7177,-0.7192,-0.7221,-0.727,-0.7292,-0.7283,-0.7367,-0.7343,-0.7345,-0.7349,-0.7377,-0.7385,-0.7391,-0.7303,-0.7303,-0.7302,0,0,-0.7014,-0.7031,-0.7068,-0.7087,-0.7115,-0.7125,-0.7134,-0.7162,-0.7171,-0.7215,-0.7213,-0.7242,-0.7296,-0.7317,-0.7335,-0.7391,-0.7389,-0.7401,-0.7427,-0.7455,-0.7462,-0.7467,-0.7489,-0.7496,-0.7406,-0.7406,-0.7406,0,-0.7033,-0.7081,-0.7087,-0.7122,-0.7141,-0.7138,-0.7175,-0.7193,-0.723,-0.7244,-0.7233,-0.7301,-0.732,-0.7374,-0.7388,-0.7402,-0.7413,-0.7398,-0.746,-0.7466,-0.7471,-0.7492,-0.7499,-0.7407,-0.7407,-0.7407,-0.7407,0,-0.7104,-0.7137,-0.7163,-0.7198,-0.7219,-0.7255,-0.7268,-0.7289,-0.7291,-0.7303,-0.7348,-0.737,-0.7405,-0.7418,-0.7421,-0.7473,-0.7467,-0.7458,-0.7439,-0.748,-0.7499,-0.7507,-0.7409,-0.7408,-0.7408,-0.7408,0,0,-0.7165,-0.7202,-0.7212,-0.7228,-0.7258,-0.7284,-0.732,-0.7353,-0.7372,-0.7397,-0.7428,-0.7474,-0.7466,-0.7486,-0.749,-0.7515,-0.7559,-0.7503,-0.7504,-0.7514,-0.7619,-0.7627,-0.7636,-0.7557,-0.7559,-0.756,-0.7617,0,-0.7219,-0.7282,-0.7288,-0.7345,-0.7376,-0.7373,-0.7404,-0.7426,-0.7438,-0.7466,-0.7479,-0.7511,-0.7497,-0.751,-0.7534,-0.7549,-0.7581,-0.7544,-0.7587,-0.7589,-0.7582,-0.7646,-0.7654,-0.7707,-0.7625,-0.7626,-0.7627,0,-0.7291,-0.7317,-0.7377,-0.7403,-0.7416,-0.7444,-0.7475,-0.7502,-0.7527,-0.7534,-0.7556,-0.7557,-0.7594,-0.7573,-0.7625,-0.76,-0.7618,-0.7628,-0.763,-0.7636,-0.7612,-0.7654,-0.7724,-0.7732,-0.7639,-0.7638,-0.7637,0,-0.7331,-0.7382,-0.7424,-0.7438,-0.7469,-0.7488,-0.7502,-0.7526,-0.7546,-0.7573,-0.7586,-0.7618,-0.7635,-0.766,-0.767,-0.7653,-0.7722,-0.7701,-0.773,-0.7729,-0.7746,-0.7745,-0.7821,-0.7754,-0.7754,-0.7754,-0.7754,0,-0.7392,-0.7429,-0.7443,-0.7469,-0.751,-0.7517,-0.7558,-0.7571,-0.7592,-0.7621,-0.762,-0.7647,-0.7658,-0.7687,-0.7695,-0.7738,-0.7745,-0.7753,-0.7755,-0.7754,-0.7753,-0.7767,-0.7764,-0.7756,-0.7756,-0.7755,-0.7755,0,-0.7445,-0.7455,-0.7502,-0.7527,-0.7534,-0.7563,-0.7585,-0.7611,-0.7621,-0.7658,-0.7667,-0.7684,-0.7718,-0.773,-0.7772,-0.7777,-0.7827,-0.7825,-0.7819,-0.7819,-0.7848,-0.7846,-0.7936,-0.7949,-0.7873,-0.7874,-0.7874,0,-0.7484,-0.7512,-0.754,-0.7559,-0.7573,-0.7604,-0.7624,-0.7631,-0.7652,-0.7682,-0.7705,-0.7738,-0.7766,-0.7821,-0.7838,-0.787,-0.787,-0.7899,-0.7875,-0.7873,-0.7872,-0.787,-0.7874,-0.7904,-0.7905,-0.7906,-0.7906,0,-0.7552,-0.7555,-0.7584,-0.7614,-0.7637,-0.7662,-0.7685,-0.7701,-0.7712,-0.7735,-0.777,-0.7791,-0.7834,-0.7868,-0.79,-0.7915,-0.7913,-0.7913,-0.7922,-0.7922,-0.7918,-0.7922,-0.7833,-0.7912,-0.7911,-0.7911,-0.7911,-0.791,-0.76,-0.7625,-0.7648,-0.768,-0.7698,-0.772,-0.7745,-0.7758,-0.7787,-0.7822,-0.7824,-0.7862,-0.7886,-0.793,-0.7946,-0.7976,-0.7968,-0.798,-0.7984,-0.7987,-0.799,-0.7911,-0.7982,-0.7982,-0.7982,-0.7981,-0.7981,0,-0.7669,-0.7684,-0.7713,-0.7745,-0.777,-0.7764,-0.779,-0.7811,-0.7844,-0.7867,-0.7893,-0.7933,-0.7966,-0.7984,-0.8017,-0.8038,-0.8038,-0.8046,-0.8046,-0.805,-0.7994,-0.7984,-0.8046,-0.8046,-0.8046,-0.8046,-0.8046,-0.8046,-0.7708,-0.7751,-0.7757,-0.7808,-0.7823,-0.7859,-0.7874,-0.7895,-0.7912,-0.7957,-0.7984,-0.7995,-0.8016,-0.805,-0.808,-0.8085,-0.8098,-0.8107,-0.8111,-0.806,-0.8053,-0.8047,-0.8038,-0.811,-0.811,-0.8164,-0.8165,-0.8165]},{"header":{"parameterUnit":"m.s-1","parameterCategory":1,"la1":30.2991,"la2":30.254,"lo1":-89.0895,"lo2":-89.0444,"dy":0.0017,"dx":0.0017,"nx":28,"ny":28,"refTime":"2024-03-24T03:00:00:Z","depth":0,"parameterNumber":3,"parameterNumberName":"V-component_of_WINDS"},"data":[0,0,0,0,0,0,0,0,0,0,0,0,0,0,0,0,0,0,0,0,0,0,0,0,0,0,0,0,0,0,0,0,0,0,0,0,0,0,0,0,0,0,0,0,0,0,0,0,0,0,0,0,0,0,0,0,0,0,-4.9316,-4.9317,0,-4.9434,-4.9436,-4.9437,-4.9388,-4.9385,-4.9383,-4.938,-4.95,-4.9505,-4.9511,0,0,0,0,0,0,0,0,0,0,0,0,0,-4.9045,-4.905,-4.9315,-4.9317,-4.9318,-4.9434,-4.9436,-4.9437,-4.9389,-4.9385,-4.9382,-4.9379,-4.9498,-4.9505,-4.9512,0,0,0,0,0,0,0,0,0,0,0,0,0,-4.9163,-4.9052,-4.9315,-4.9308,-4.9309,-4.9434,-4.9436,-4.9438,-4.939,-4.9385,-4.9381,-4.9377,-4.9495,-4.9504,-4.9513,-4.9651,0,0,-4.9539,-4.9543,0,0,0,0,0,0,0,0,-4.9156,-4.9173,-4.9308,-4.9309,-4.931,-4.9392,-4.9384,-4.9509,-4.9391,-4.9359,-4.938,-4.9375,-4.9467,-4.9478,-4.9509,-4.9656,-4.9662,-4.954,-4.9545,-4.9549,-4.9551,0,0,0,0,0,0,0,-4.9148,-4.9167,-4.9362,-4.931,-4.9311,-4.9299,-4.9311,-4.9408,-4.9435,-4.9361,-4.9358,-4.9373,-4.9467,-4.9501,-4.9512,-4.9663,-4.954,-4.9547,-4.9553,-4.9556,-4.993,-4.9935,0,0,0,0,0,0,-4.914,-4.9161,-4.9359,-4.9366,-4.9221,-4.9307,-4.932,-4.937,-4.9434,-4.944,-4.9376,-4.937,-4.9488,-4.9502,-4.9516,-4.9683,-4.9549,-4.9557,-4.9562,-4.9926,-4.9931,-4.9936,0,0,0,0,0,0,-4.9134,-4.9158,-4.9354,-4.9263,-4.9287,-4.9316,-4.9372,-4.9375,-4.9409,-4.9445,-4.945,-4.9407,-4.9486,-4.9504,-4.9618,-4.9687,-4.9561,-4.9569,-4.992,-4.9927,-4.9934,-5.0018,0,0,0,0,0,0,-4.9127,-4.9156,-4.921,-4.9264,-4.9292,-4.9455,-4.9376,-4.938,-4.9424,-4.9417,-4.9475,-4.948,-4.9484,-4.9605,-4.9627,-4.9696,-4.9576,-4.9914,-4.9923,-4.9932,-5.0009,-5.0027,-5.0042,0,0,0,0,0,-4.9117,-4.9228,-4.9213,-4.9237,-4.9359,-4.9459,-4.9475,-4.9477,-4.943,-4.9484,-4.9507,-4.9478,-4.9675,-4.9617,-4.9641,-4.9714,-4.991,-4.9921,-4.9931,-5.0002,-5.0024,-5.0042,0,0,0,0,0,0,-4.918,-4.9235,-4.9219,-4.935,-4.9401,-4.945,-4.9518,-4.9499,-4.9563,-4.9554,-4.9553,-4.9567,-4.9685,-4.971,-4.9645,-4.9852,-4.9785,-4.9801,-4.9831,-4.9852,-4.9868,-4.986,-4.9583,0,0,0,0,0,-4.9209,-4.9287,-4.933,-4.9442,-4.9468,-4.9489,-4.9532,-4.953,-4.9581,-4.9602,-4.9634,-4.9684,-4.9758,-4.9806,-4.9875,-5.0012,-5.0024,-5.0074,-5.0091,-5.0104,-5.0118,-5.0193,-5.0216,-4.9971,-4.9971,-4.9971,0,0,-4.9271,-4.931,-4.9359,-4.9456,-4.9494,-4.9574,-4.9507,-4.9594,-4.9653,-4.9615,-4.9726,-4.9751,-4.9807,-4.9934,-4.9991,-4.9959,-5.0188,-5.0117,-5.0128,-5.0135,-5.0207,-5.023,-5.025,-4.9978,-4.9977,-4.9976,0,0,-4.9423,-4.9461,-4.9559,-4.9599,-4.9658,-4.9671,-4.9695,-4.9748,-4.9764,-4.9874,-4.9848,-4.9917,-5.0043,-5.0085,-5.0122,-5.0291,-5.0267,-5.0313,-5.04,-5.0473,-5.0493,-5.051,-5.0571,-5.0593,-5.0327,-5.0327,-5.0327,0,-4.9492,-4.9612,-4.9611,-4.9701,-4.9745,-4.9714,-4.9814,-4.9852,-4.9931,-4.9961,-4.9924,-5.0082,-5.0117,-5.0254,-5.0295,-5.0326,-5.0353,-5.0307,-5.049,-5.0507,-5.0523,-5.0582,-5.0604,-5.0332,-5.0332,-5.0331,-5.033,0,-4.9694,-4.9777,-4.9849,-4.9927,-4.9978,-5.0072,-5.0086,-5.0137,-5.013,-5.0147,-5.0261,-5.0302,-5.038,-5.0411,-5.0404,-5.0547,-5.0526,-5.0489,-5.0423,-5.0552,-5.0607,-5.0629,-5.034,-5.0338,-5.0336,-5.0335,0,0,-4.989,-4.9967,-4.9994,-5.0029,-5.0092,-5.0156,-5.0248,-5.0325,-5.037,-5.0425,-5.0503,-5.061,-5.0577,-5.0619,-5.0617,-5.0681,-5.0813,-5.0637,-5.0638,-5.0669,-5.0974,-5.1002,-5.1028,-5.0797,-5.0801,-5.0805,-5.097,0,-5.0049,-5.0212,-5.0215,-5.0364,-5.0442,-5.0414,-5.0494,-5.0541,-5.0559,-5.0627,-5.0646,-5.0723,-5.0673,-5.0699,-5.0761,-5.0784,-5.0874,-5.0772,-5.087,-5.0873,-5.0859,-5.1057,-5.1087,-5.1241,-5.0991,-5.0995,-5.0997,0,-5.0256,-5.0319,-5.0477,-5.053,-5.0562,-5.0635,-5.0705,-5.077,-5.0823,-5.0831,-5.088,-5.0867,-5.0961,-5.089,-5.1019,-5.095,-5.0989,-5.1007,-5.1013,-5.1023,-5.0944,-5.1074,-5.129,-5.1314,-5.1031,-5.1028,-5.1026,0,-5.0386,-5.051,-5.0621,-5.0651,-5.0715,-5.0767,-5.0796,-5.0844,-5.089,-5.0951,-5.0982,-5.1052,-5.1092,-5.1147,-5.1154,-5.1101,-5.1284,-5.1213,-5.1294,-5.1294,-5.1335,-5.1333,-5.1562,-5.1358,-5.1358,-5.1357,-5.1357,0,-5.0564,-5.0663,-5.068,-5.0749,-5.0857,-5.0859,-5.0966,-5.099,-5.1034,-5.1106,-5.1085,-5.1153,-5.1157,-5.1227,-5.1233,-5.1339,-5.1357,-5.1366,-5.1367,-5.137,-5.1369,-5.1397,-5.1387,-5.1363,-5.1362,-5.1361,-5.136,0,-5.0729,-5.0744,-5.0863,-5.0914,-5.0929,-5.1007,-5.105,-5.1115,-5.1131,-5.1223,-5.1244,-5.1269,-5.135,-5.1362,-5.1456,-5.146,-5.1589,-5.1577,-5.1572,-5.1571,-5.1651,-5.1644,-5.1908,-5.1943,-5.1714,-5.1717,-5.1718,0,-5.0842,-5.0917,-5.0976,-5.1024,-5.1055,-5.1131,-5.1179,-5.1182,-5.1232,-5.1298,-5.1355,-5.1434,-5.1498,-5.1628,-5.1654,-5.1726,-5.1718,-5.1805,-5.1728,-5.1729,-5.1721,-5.1717,-5.1725,-5.182,-5.1823,-5.1825,-5.1827,0,-5.1043,-5.1047,-5.1116,-5.1189,-5.1246,-5.1303,-5.1357,-5.1396,-5.1407,-5.1464,-5.1547,-5.1596,-5.1693,-5.1772,-5.1844,-5.1872,-5.1852,-5.185,-5.1873,-5.1877,-5.1872,-5.1878,-5.1614,-5.1845,-5.1843,-5.1842,-5.1841,-5.184,-5.1187,-5.1252,-5.1304,-5.1382,-5.1423,-5.1474,-5.1538,-5.1562,-5.1632,-5.1712,-5.1709,-5.1801,-5.1851,-5.1945,-5.1979,-5.205,-5.2021,-5.2054,-5.2063,-5.2071,-5.208,-5.1859,-5.2063,-5.2062,-5.2062,-5.2061,-5.2061,0,-5.1387,-5.1419,-5.1491,-5.1568,-5.1629,-5.1604,-5.1662,-5.1715,-5.1797,-5.1846,-5.1909,-5.2005,-5.2081,-5.2113,-5.2188,-5.2239,-5.2231,-5.2258,-5.2255,-5.2263,-5.21,-5.2074,-5.2263,-5.2263,-5.2263,-5.2263,-5.2263,-5.2263,-5.1499,-5.161,-5.162,-5.175,-5.1781,-5.1872,-5.1907,-5.1954,-5.1993,-5.2102,-5.2165,-5.2186,-5.2228,-5.2306,-5.2374,-5.2382,-5.2411,-5.2443,-5.2446,-5.2294,-5.2274,-5.2254,-5.223,-5.2449,-5.2449,-5.2603,-5.2604,-5.2605]}]]